{"data":{"norad_id":64488,"epoch":"2026-05-25T05:18:03.966336Z","epoch_age_seconds":70041,"freshness":"FRESH","line1":"1 64488U 25133S   26145.22087924  .00012098  00000+0  41986-3 0  9996","line2":"2 64488  53.1573 121.4586 0001000  83.4907 276.6207 15.30205565 52790","mean_motion":15.30205565,"eccentricity":0.0001,"inclination_deg":53.1573,"raan_deg":121.4586,"arg_perigee_deg":83.4907,"mean_anomaly_deg":276.6207,"bstar":0.00041986,"rev_number":5279,"period_min":94.105003467296,"perigee_km":474.51311983744,"apogee_km":475.88378692812,"semimajor_km":6853.3354533828,"source":"CELESTRAK","updated_at":"2026-05-25T13:38:20.460310Z"}}